Location: Collingbourne Ducis
(51.2833°N, 1.6500°W)
Time: 17:59:04
(UTC+00:00)

Daily predictions for brighter satellites

Satellite Brightness Start Highest point End
(mag) Time Altitude Azimuth Time Altitude Azimuth Time Altitude Azimuth
USA 238 DEB 3.9 21:02:12 10° SW 21:08:49 82° NW 21:15:50 10° NE
SPOT 3 Rocket 4.1 21:03:49 10° S 21:08:54 57° WSW 21:14:03 10° NNW
USA 238 3.9 21:02:19 10° SW 21:08:55 82° NW 21:15:56 10° NE
Cosmos 1844 3.9 21:05:02 10° NNW 21:10:36 68° NE 21:16:10 10° SE
Cosmos 2219 Rocket 3.6 21:08:55 10° SE 21:12:49 19° E 21:16:45 10° NE
Cosmos 2285 Rocket 4.2 21:07:14 10° SSW 21:13:41 82° WNW 21:20:10 10° NNE
Cosmos 1802 Rocket 4.3 21:10:35 10° N 21:16:47 60° ENE 21:23:02 10° SSE
CENTAUR R/B 2.9 21:10:47 10° SW 21:16:55 78° NW 21:24:20 10° NE
DNEPR-1 R/B 3.9 21:17:42 10° NW 21:21:54 57° NE 21:26:10 10° ESE
NOSS 8 (A) 4.1 21:21:35 10° SSW 21:24:47 59° SE 21:27:40 10° NE
KORONAS-FOTON 3.7 21:23:26 10° S 21:27:13 73° E 21:31:01 10° NNE
Cosmos 1025 Rocket 3.4 21:23:37 10° SSE 21:27:48 47° E 21:32:01 10° NNE
Aureole 1 Rocket 4.1 21:22:34 10° NNW 21:28:11 87° WSW 21:35:28 10° SSE
Cosmos 292 Rocket 4.3 21:24:02 10° SW 21:28:51 66° WNW 21:33:40 10° NNE
Genesis I 3.8 21:26:33 10° SW 21:30:24 62° NW 21:34:21 10° NE
Cosmos 1459 Rocket 4.0 21:25:02 10° N 21:31:08 87° E 21:37:12 10° S
Cosmos 1461 3.3 21:27:59 10° NW 21:32:09 55° SW 21:36:05 10° SSE
CARTOSAT-1 3.8 21:28:18 10° S 21:32:35 73° WSW 21:36:57 10° NNW
Resurs 01 Rocket 3.5 21:30:26 10° SSW 21:34:09 26° W 21:37:53 10° NW
SL-16 R/B 2.6 21:28:56 10° SW 21:34:35 71° WNW 21:40:17 10° NNE
Cosmos 2360 Rocket 2.3 21:29:07 10° SSW 21:34:40 62° ESE 21:40:15 10° NE
Cosmos 2322 Rocket 2.4 21:30:57 10° SSW 21:36:39 84° WNW 21:42:25 10° NNE
JB-3 4.3 21:33:15 10° NNE 21:37:13 89° ESE 21:41:14 10° SSW
USA 267 3.8 21:31:52 10° E 21:38:17 62° NNE 21:44:45 10° WNW
Cosmos 1900 4.3 21:35:27 10° NW 21:40:23 81° SW 21:44:58 12° SSE
Cosmos 1975 Rocket 3.3 21:37:17 10° SSW 21:41:39 73° WNW 21:46:04 10° N
Cosmos 1000 Rocket 4.5 21:36:42 10° S 21:42:50 82° E 21:49:01 10° NNE
Cosmos 1674 2.8 21:40:01 10° SSW 21:43:42 73° W 21:47:26 10° N
ATLAS CENTAUR R/B 1.5 21:39:51 10° NW 21:44:09 84° NE 21:48:22 12° SE
Cosmos 1110 Rocket 4.0 21:40:10 10° SSW 21:45:18 68° ESE 21:50:30 10° NNE
SPOT 5 3.1 21:41:49 10° S 21:46:58 77° WSW 21:51:53 10° NNW
Cosmos 968 Rocket 4.0 21:43:48 10° NNW 21:48:48 51° ENE 21:53:28 12° SE
Cosmos 1300 2.9 21:47:33 10° N 21:51:21 56° ENE 21:54:30 14° SSE
Cosmos 2061 Rocket 4.1 21:46:29 10° N 21:52:59 83° E 21:59:13 11° SSE
COSMOS 2428 3.6 21:48:21 10° SSE 21:53:19 31° ESE 21:58:18 10° NE
Terra 1.8 21:49:22 11° SSE 21:53:57 89° W 21:58:45 10° NNW
Cosmos 2322 4.1 21:49:40 10° S 21:54:59 44° ESE 22:00:20 10° NE
Cosmos 2237 4.4 21:52:42 10° SSW 21:58:24 80° WNW 22:04:09 10° NNE
Cosmos 2278 Rocket 3.1 21:53:03 10° NNW 21:58:25 41° NE 22:03:46 10° ESE
Cosmos 405 2.9 21:55:33 10° N 21:59:02 83° E 22:01:49 15° SSE
Lacrosse 5 4.1 21:57:14 10° W 21:59:49 14° WSW 22:02:22 10° SSW
Cosmos 2123 Rocket 4.0 21:59:48 10° S 22:06:05 78° E 22:12:26 10° NNE
Cosmos 1844 Rocket 3.5 22:02:02 10° NW 22:07:24 44° WSW 22:12:33 11° S
Cosmos 1340 2.6 22:06:52 11° S 22:10:31 80° E 22:14:18 10° NNE
ARIANE 5 R/B 4.0 22:07:31 10° SSW 22:11:33 33° W 22:15:40 10° NNW
Cosmos 2233 Rocket 4.1 22:05:53 10° N 22:12:02 72° ENE 22:17:17 15° SSE
H-2A R/B 3.4 22:08:21 10° NNE 22:12:27 68° ESE 22:16:09 12° S
FALCON 9 DEB 3.0 22:09:59 10° SW 22:13:22 61° SSE 22:16:45 10° ENE
Cosmos 1346 Rocket 3.9 22:11:16 16° SE 22:13:43 29° E 22:17:14 10° NNE
FALCON 9 DEB 3.9 22:12:23 10° SSW 22:15:00 25° SE 22:17:37 10° E
GEOS 3 Rocket 3.8 22:11:18 11° SE 22:16:24 76° NE 22:21:45 10° NW
FALCON 9 DEB 4.1 22:18:01 20° SSE 22:18:50 22° SE 22:21:20 10° E
Meteor 2-5 Rocket 3.7 22:18:54 11° S 22:24:11 76° E 22:29:49 10° NNE
FALCON 9 DEB 3.8 22:21:42 10° SSW 22:24:25 28° SE 22:27:08 10° E
Cosmos 1606 Rocket 4.0 22:21:42 10° N 22:26:07 53° ENE 22:29:16 18° SSE
Lacrosse 5 rocket 0.9 22:22:50 10° SW 22:26:26 63° SE 22:29:59 10° ENE
ATLAS 3B R/B 2.6 22:21:39 10° SSW 22:28:07 65° SE 22:34:50 10° NE
SJ 16-02 3.9 22:26:55 10° NNE 22:29:07 13° NE 22:31:18 10° ENE
ERS-1 Rocket 4.2 22:24:55 10° SSW 22:29:30 35° W 22:34:08 10° NNW
Cosmos 2333 4.3 22:28:12 10° SSW 22:33:58 88° WNW 22:39:44 10° NNE
ALOS 2 3.8 22:32:40 13° ESE 22:35:58 32° ENE 22:39:54 10° N
Cosmos 1943 Rocket 4.1 22:33:20 10° NNW 22:37:41 23° NE 22:42:02 10° E
Cosmos 1503 Rocket 4.4 22:34:21 10° NNW 22:39:42 61° ENE 22:43:52 17° SE
Spot 4 4.1 22:39:08 18° SSE 22:42:36 62° ENE 22:47:20 10° N
Cosmos 1626 4.0 22:40:11 10° SW 22:43:25 28° WNW 22:46:39 10° N
Cosmos 2333 Rocket 2.3 22:39:32 10° SSW 22:45:18 87° WNW 22:51:04 10° NNE
USA 215 3.5 22:39:24 10° ENE 22:45:43 48° SE 22:51:59 10° SSW
SL-14 R/B 4.5 22:44:31 10° SW 22:48:21 40° WNW 22:52:11 10° N
Cosmos 1302 Rocket 4.2 22:45:45 10° SSW 22:51:01 77° WNW 22:56:18 10° NNE
Meteor 2-10 Rocket 3.5 22:46:07 10° NNW 22:51:14 73° W 22:54:49 19° S
Cosmos 2219 Rocket 2.3 22:50:23 10° SSW 22:56:05 84° WNW 23:01:48 10° NNE
Cosmos 1464 Rocket 4.3 22:51:01 10° N 22:57:20 62° ENE 23:02:03 19° SSE
Cosmos 1867 3.7 22:52:42 10° NW 22:58:08 63° SW 23:01:50 21° SSE
Cosmos 1607 4.0 22:53:19 10° NW 22:59:49 86° NE 23:05:04 16° SE
Cosmos 389 Rocket 2.7 22:58:51 10° NNW 23:02:13 56° W 23:04:01 24° SSW
Iridium 2 3.6 23:05:20 25° S 23:07:25 79° E 23:11:11 10° N
COBE Rocket 4.0 23:04:31 21° SSE 23:07:56 76° ENE 23:12:52 10° N
Meteor 1-24 Rocket 4.0 23:03:16 12° SSW 23:08:15 62° WNW 23:13:43 10° N
CENTAUR R/B 4.5 23:02:36 10° W 23:08:43 37° NNW 23:15:54 10° NE
SL-16 R/B 3.9 23:06:17 13° SE 23:08:48 18° E 23:12:27 10° ENE
Cosmos 2228 3.7 23:06:37 10° NNW 23:10:54 49° W 23:13:45 19° SSW
Cosmos 2237 Rocket 2.6 23:09:08 21° S 23:12:39 47° ESE 23:18:00 10° NE
Meteor 1-4 Rocket 3.9 23:11:42 10° N 23:14:50 29° ENE 23:16:45 18° ESE
Cosmos 1455 2.2 23:14:47 10° NNW 23:18:38 74° W 23:20:36 27° S
Cosmos 2360 Rocket 4.0 23:14:02 10° WSW 23:19:03 32° NW 23:24:06 10° NNE
Cosmos 2369 Rocket 4.1 23:15:29 10° NNW 23:20:15 26° NE 23:25:00 10° E
USA 267 3.2 23:14:47 10° SE 23:21:16 74° SSW 23:27:51 10° WNW
ATLAS CENTAUR R/B 3.5 23:19:43 10° WNW 23:22:34 17° WSW 23:24:30 14° SW
Cosmos 1184 Rocket 2.9 23:22:45 33° SSE 23:24:00 61° E 23:27:13 10° NNE
Cosmos 1777 Rocket 4.3 23:24:18 10° NNW 23:29:35 67° ENE 23:33:25 19° SE
FALCON 9 DEB 2.8 23:26:45 10° WSW 23:29:51 63° SSE 23:32:58 10° ENE
Okean 1-7 Rocket 3.8 23:27:36 25° SSE 23:30:03 59° E 23:34:26 10° NNE
Cosmos 2034 Rocket 4.0 23:25:15 10° N 23:31:29 76° ENE 23:35:44 21° SSE
Terra 4.2 23:30:03 10° WSW 23:32:25 14° W 23:34:47 10° NW
Cosmos 1354 Rocket 4.2 23:30:59 10° NNW 23:36:16 61° WSW 23:39:29 23° S
Meteor 1-21 Rocket 4.3 23:33:19 22° S 23:37:01 73° E 23:42:45 10° NNE
COSMOS 2428 3.4 23:31:41 10° SW 23:37:20 56° NW 23:43:00 10° NNE
Cosmos 1992 Rocket 4.2 23:34:09 14° SSW 23:38:36 71° WNW 23:43:52 10° NNE
Cosmos 2297 4.1 23:36:01 10° NNW 23:41:37 60° NE 23:46:30 14° SE
Cosmos 192 4.4 23:38:56 24° S 23:41:53 67° ESE 23:46:47 10° NNE
Cosmos 2058 Rocket 3.4 23:37:44 10° NNW 23:42:08 59° W 23:44:34 25° SSW
Cosmos 2278 Rocket 2.8 23:37:13 10° NW 23:42:34 44° WSW 23:45:51 22° S
Cosmos 1812 Rocket 4.2 23:38:24 10° N 23:42:37 46° ENE 23:45:17 20° SE
Cosmos 724 4.5 23:39:18 10° NW 23:45:34 81° NE 23:50:57 14° SE
GENESIS II 4.1 23:46:52 23° SSW 23:49:13 77° SE 23:53:08 10° NE
Cosmos 1346 Rocket 4.4 23:46:44 11° SW 23:50:02 30° WNW 23:53:37 10° N
FALCON 9 DEB 3.5 23:46:53 10° W 23:50:17 64° N 23:53:41 10° ENE
FALCON 9 DEB 2.8 23:47:15 10° WSW 23:50:21 87° NNW 23:53:28 10° ENE
FALCON 9 DEB 2.7 23:51:06 10° WSW 23:54:14 86° SSE 23:57:22 10° ENE
